Location: Seasalter
(51.3333°N, 1.0167°E)
Time: 14:06:47
(UTC+00:00)

ATLAS 5 CENTAUR R/B - Pass Details

Date: 23 April 2024
Orbit: 421 x 1169 km, 63.3° (Epoch: 22 May)

Event Time Altitude Azimuth Distance (km) Brightness Sun altitude
Rises 01:50:18 0° 314° (NW) 2,895 5.2 -21.2°
Reaches altitude 10° 01:52:22 10° 313° (NW) 2,087 4.4 -21.1°
Maximum altitude 01:57:09 76° 228° (SW) 798 1.9 -20.7°
Drops below altitude 10° 02:03:07 10° 144° (SE) 2,589 4.5 -20.2°
Sets 02:05:55 0° 143° (SE) 3,649 5.3 -19.9°
